Volver al catálogo

STARLINK-11151

ActivoComunicacionesVLEO
NORAD 60049·PAYLOAD·🇺🇸 United States

Lanzado Jun 8, 2024 desde Vandenberg Space Force Base

Loading…

Próximos Pases (próximas 24 horas)

TLE

ActualizadoSource: CelesTrak SupGP

Época: Sep 15, 2026, 03:40 UTC

1 60049C 24112M   26258.15326389  .00037696  00000+0  31089-3 0  2581
2 60049  53.1573  52.0424 0001159  69.1374 219.6736 15.69661985    19

Sigue STARLINK-11151 en tiempo real con AllMySat

Download on the App Store